Madisonville, KY

9:15 AM CST on December 12, 2019 (GMT -0600)
Madisonville

Weather History for K2I0 - October, 2019

Change the Weather History Date:

Tuesday, October 1, 2019

  Actual Average (KOWB) Record (KOWB)
Temperature  
Mean Temperature 82 °F -  
Max Temperature 97 °F 77 °F 96 °F (2019)
Min Temperature 68 °F 50 °F 34 °F (1946)
Cooling Degree Days 18    
Growing Degree Days 32 (Base 50)    
Moisture  
Dew Point 65 °F    
Average Humidity 63    
Maximum Humidity 100    
Minimum Humidity 30    
Precipitation  
Precipitation 0.00 in - - ()
Sea Level Pressure  
Sea Level Pressure 30.05 in    
Wind  
Wind Speed 2 mph ()    
Max Wind Speed 13 mph    
Max Gust Speed 24 mph    
Visibility 9.2 miles    
Events Fog    
Averages and records for this station are not official NWS values.
T = Trace of Precipitation, MM = Missing Value Source: Averaged Metar Reports

Daily Weather History Graph

Daily Weather History Graph

Search for Another Location

Airport or City:

Astronomy

Oct. 01, 2019 Rise Set
Actual Time 6:44 AM CDT 6:33 PM CDT
Civil Twilight 6:18 AM CDT 6:59 PM CDT
Nautical Twilight 5:48 AM CDT 7:29 PM CDT
Astronomical Twilight 5:18 AM CDT 7:59 PM CDT
Moon 9:56 AM CDT (10/1) 8:50 PM CDT (10/1)
Length of Visible Light 12h 40m
Length of Day
11h 48m
Waxing Crescent, 12% of the Moon is Illuminated
Oct 1
Waxing Crescent
Oct 5
First Quarter
Oct 13
Full
Oct 21
Last Quarter
Oct 27
New

Hourly Weather History & Observations

Time (CDT) Temp. Heat Index Dew Point Humidity Pressure Visibility Wind Dir Wind Speed Gust Speed Precip Events Conditions
12:35 AM 73.9 °F - 69.3 °F 85% 30.05 in 10.0 mi Calm Calm - N/A   Clear
12:55 AM 72.9 °F - 68.4 °F 86% 30.05 in 10.0 mi Calm Calm - N/A   Clear
1:15 AM 72.5 °F - 68.0 °F 86% 30.05 in 10.0 mi Calm Calm - N/A   Clear
1:35 AM 71.8 °F - 68.5 °F 89% 30.05 in 10.0 mi Calm Calm - N/A   Clear
1:55 AM 71.8 °F - 67.8 °F 87% 30.06 in 10.0 mi Calm Calm - N/A   Clear
2:15 AM 71.6 °F - 67.8 °F 88% 30.06 in 10.0 mi Calm Calm - N/A   Clear
2:35 AM 70.7 °F - 67.1 °F 88% 30.06 in 10.0 mi Calm Calm - N/A   Clear
2:55 AM 70.9 °F - 68.9 °F 93% 30.06 in 7.0 mi Calm Calm - N/A   Clear
3:15 AM 70.5 °F - 67.6 °F 91% 30.05 in 10.0 mi Calm Calm - N/A   Clear
3:35 AM 70.0 °F - 67.1 °F 91% 30.05 in 10.0 mi Calm Calm - N/A   Clear
3:55 AM 69.8 °F - 67.5 °F 92% 30.05 in 7.0 mi Calm Calm - N/A   Clear
4:15 AM 71.1 °F - 71.1 °F 100% 30.06 in 7.0 mi Calm Calm - N/A   Clear
4:35 AM 70.0 °F - 67.5 °F 92% 30.06 in 7.0 mi Calm Calm - N/A   Clear
4:55 AM 70.2 °F - 67.8 °F 92% 30.07 in 5.0 mi Calm Calm - N/A   Clear
5:15 AM 69.1 °F - 67.3 °F 94% 30.07 in 7.0 mi Calm Calm - N/A   Clear
5:35 AM 69.1 °F - 67.5 °F 95% 30.08 in 5.0 mi Calm Calm - N/A   Clear
5:55 AM 68.9 °F - 66.4 °F 92% 30.09 in 10.0 mi Calm Calm - N/A   Clear
6:15 AM 68.9 °F - 68.9 °F 100% 30.09 in 2.0 mi Calm Calm - N/A   Clear
6:35 AM 68.5 °F - 68.5 °F 100% 30.09 in 0.2 mi Calm Calm - N/A Fog Fog
6:55 AM - - - N/A% 30.10 in 1.0 mi Calm Calm - N/A   Mist
7:15 AM - - - N/A% 30.11 in 7.0 mi Calm Calm - N/A   Clear
7:35 AM 70.2 °F - 70.2 °F 100% 30.11 in 10.0 mi Calm Calm - N/A   Clear
7:55 AM 73.8 °F - 68.9 °F 85% 30.12 in 10.0 mi Calm Calm - N/A   Clear
8:15 AM 75.9 °F - 68.9 °F 79% 30.12 in 10.0 mi Calm Calm - N/A   Clear
8:35 AM 78.4 °F - 69.3 °F 73% 30.12 in 10.0 mi Calm Calm - N/A   Clear
8:55 AM 81.0 °F 84.1 °F 68.9 °F 67% 30.12 in 10.0 mi SSW 4.6 mph - N/A   Clear
9:15 AM 83.3 °F 86.6 °F 68.5 °F 61% 30.13 in 10.0 mi SW 4.6 mph - N/A   Clear
9:35 AM 85.5 °F 88.8 °F 68.4 °F 56% 30.13 in 10.0 mi SSW 3.5 mph - N/A   Clear
9:55 AM 87.3 °F 90.9 °F 68.0 °F 53% 30.12 in 10.0 mi Calm Calm - N/A   Clear
10:15 AM 89.2 °F 92.4 °F 67.1 °F 48% 30.12 in 10.0 mi WSW 4.6 mph - N/A   Clear
10:55 AM 91.4 °F 94.0 °F 66.2 °F 43% 30.11 in 10.0 mi South 5.8 mph - N/A   Clear
11:15 AM 91.8 °F 94.6 °F 66.0 °F 43% 30.10 in 10.0 mi WSW 4.6 mph - N/A   Scattered Clouds
11:35 AM 91.4 °F 92.8 °F 64.0 °F 40% 30.10 in 10.0 mi SSW 8.1 mph 17.3 mph N/A   Scattered Clouds
11:55 AM 91.0 °F 92.2 °F 63.7 °F 40% 30.10 in 10.0 mi West 11.5 mph - N/A   Scattered Clouds
12:15 PM 94.3 °F 95.3 °F 62.8 °F 35% 30.09 in 10.0 mi SW 10.4 mph 16.1 mph N/A   Clear
12:35 PM 95.0 °F 96.0 °F 62.4 °F 34% 30.08 in 10.0 mi SW 8.1 mph 18.4 mph N/A   Scattered Clouds
12:55 PM 94.6 °F 95.1 °F 61.5 °F 33% 30.08 in 10.0 mi SSW 10.4 mph 18.4 mph N/A   Scattered Clouds
1:15 PM 95.2 °F 95.9 °F 62.1 °F 33% 30.07 in 10.0 mi WSW 11.5 mph 18.4 mph N/A   Scattered Clouds
1:35 PM 94.1 °F 94.6 °F 61.9 °F 34% 30.06 in 10.0 mi West 9.2 mph - N/A   Clear
1:55 PM 96.4 °F 97.4 °F 61.9 °F 32% 30.05 in 10.0 mi WSW 9.2 mph 17.3 mph N/A   Scattered Clouds
2:15 PM 96.4 °F 96.5 °F 60.4 °F 30% 30.05 in 10.0 mi WSW 9.2 mph 16.1 mph N/A   Scattered Clouds
2:35 PM 95.9 °F 96.1 °F 60.4 °F 31% 30.04 in 10.0 mi WNW 8.1 mph - N/A   Scattered Clouds
2:55 PM 97.2 °F 97.6 °F 61.0 °F 30% 30.04 in 10.0 mi West 12.7 mph 18.4 mph N/A   Scattered Clouds
3:15 PM 96.3 °F 96.7 °F 60.8 °F 31% 30.03 in 10.0 mi WSW 10.4 mph 16.1 mph N/A   Clear
3:35 PM 96.4 °F 97.0 °F 61.0 °F 31% 30.03 in 10.0 mi WSW 9.2 mph 18.4 mph N/A   Clear
3:55 PM 96.3 °F 96.7 °F 60.8 °F 31% 30.03 in 10.0 mi WSW 11.5 mph 17.3 mph N/A   Clear
4:15 PM 96.6 °F 97.3 °F 61.5 °F 31% 30.02 in 10.0 mi West 10.4 mph 24.2 mph N/A   Scattered Clouds
4:35 PM 96.1 °F 96.4 °F 61.2 °F 31% 30.02 in 10.0 mi WSW 10.4 mph 17.3 mph N/A   Scattered Clouds
4:55 PM 95.7 °F 96.3 °F 61.5 °F 32% 30.02 in 10.0 mi SSW 11.5 mph - N/A   Mostly Cloudy
5:15 PM 95.0 °F 95.6 °F 61.3 °F 33% 30.01 in 10.0 mi South 4.6 mph - N/A   Scattered Clouds
5:35 PM 94.1 °F 94.2 °F 61.2 °F 33% 30.01 in 10.0 mi WSW 6.9 mph - N/A   Scattered Clouds
5:55 PM 93.0 °F 93.4 °F 61.7 °F 35% 30.01 in 10.0 mi WSW 5.8 mph - N/A   Clear
6:15 PM 90.9 °F 91.6 °F 62.4 °F 39% 30.01 in 10.0 mi WSW 5.8 mph - N/A   Clear
6:35 PM 88.2 °F 89.0 °F 63.1 °F 43% 30.01 in 10.0 mi SW 3.5 mph - N/A   Clear
6:55 PM 86.7 °F 87.5 °F 63.3 °F 45% 30.01 in 10.0 mi SW 3.5 mph - N/A   Clear
7:15 PM 85.5 °F 86.6 °F 63.9 °F 48% 30.01 in 10.0 mi WSW 3.5 mph - N/A   Clear
7:35 PM 82.9 °F 84.8 °F 65.3 °F 55% 30.00 in 10.0 mi Calm Calm - N/A   Clear
7:55 PM 80.6 °F 82.5 °F 65.5 °F 60% 30.00 in 10.0 mi Calm Calm - N/A   Clear
8:15 PM 79.3 °F - 65.5 °F 62% 30.00 in 10.0 mi Calm Calm - N/A   Clear
8:35 PM 78.1 °F - 65.3 °F 65% 30.00 in 10.0 mi Calm Calm - N/A   Clear
8:55 PM 77.2 °F - 66.2 °F 69% 30.00 in 10.0 mi Calm Calm - N/A   Clear
9:15 PM 76.6 °F - 66.2 °F 70% 30.00 in 10.0 mi Calm Calm - N/A   Clear
9:55 PM 75.2 °F - 66.7 °F 75% 30.00 in 10.0 mi Calm Calm - N/A   Clear
10:15 PM 75.7 °F - 66.2 °F 72% 30.00 in 10.0 mi Calm Calm - N/A   Clear
10:35 PM 73.6 °F - 66.2 °F 78% 30.00 in 10.0 mi Calm Calm - N/A   Clear
10:55 PM 73.9 °F - 66.2 °F 77% 30.00 in 7.0 mi Calm Calm - N/A   Clear
11:15 PM 74.5 °F - 66.4 °F 76% 30.00 in 10.0 mi SSW 3.5 mph - N/A   Clear
11:35 PM 73.4 °F - 66.6 °F 79% 30.01 in 10.0 mi Calm Calm - N/A   Clear
11:55 PM 73.8 °F - 66.6 °F 78% 30.00 in 10.0 mi Calm Calm - N/A   Clear